Frank Pais International Airport
MUHG : now visible

Airfield :











YOU CAN JOIN US ON...

 
LOGIN :

Register | Disclaimer

   EN    FR    IT 

 









Legend :    VFR   Marginal VFR   IFR   Intensive IFR   Very Intensive IFR
Visi :
Ceiling :
>= 8 km
>= 3000ft
5 to 8 km
1000 to 3000 ft
1500m to 5 km
500 to 1000 ft
800 to 1500m
200 to 500 ft
< 800m
< 200 ft
Symbols :   Thunderstorms  Fog  Heavy snow  Heavy precipitations  Wind > 20 kt






- Airport Elevation : 361 ft
- IATA code : HOG


MUHG - Frank Pais International

CURRENT METAR :
  • 201950Z VRB09KT 8000 -RA FEW045 BKN060 29/23 Q1010

EXPIRED METARs :
  • 201928Z VRB03KT 5000 RA FEW042CB BKN045TCU 34/24 Q1010 RMK TCU OVER AD
  • 201850Z VRB05KT 9999 FEW045 BKN060 35/21 Q1010
  • 201750Z VRB03KT 9999 FEW045 BKN048 33/21 Q1011

TAF MUHG
Valid from the 20 at 18:00 until the 21 at 18:00 UTC


201700Z 2018/2118 06010KT 9000 SCT020
BECMG 2103/2105 VRB03KT
MUFH FIR / North America



MET'MAP, your aeronautical weather chart ! - Copyright ORBIFLY December 2007 - Disclaimer

ORBIFLY MET'MAP TEAM :

Programming & Development : Alexandra Zaïnal
Concept & original design : Baudouin d'Aumeries
Assistance for programming : Marc-Olivier Méhu
Technical & hardware support : Manuel Goepfert

Contact : metmap@orbifly.com




SOURCES & CREDITS :

   NOAA       Earth
Advisory